TimeCDT,TemperatureF,Dew PointF,Humidity,Sea Level PressureIn,VisibilityMPH,Wind Direction,Wind SpeedMPH,Gust SpeedMPH,PrecipitationIn,Events,Conditions,WindDirDegrees,DateUTC
12:15 AM,24.1,20.1,85,30.36,10.0,South,4.6,-,N/A,,Clear,180,2012-10-27 05:15:00
12:35 AM,25.0,20.7,84,30.35,10.0,Calm,Calm,-,N/A,,Clear,0,2012-10-27 05:35:00
12:55 AM,24.3,19.9,84,30.35,10.0,South,3.5,-,N/A,,Clear,180,2012-10-27 05:55:00
1:15 AM,25.7,21.0,82,30.35,10.0,Calm,Calm,-,N/A,,Clear,0,2012-10-27 06:15:00
1:35 AM,24.4,20.3,84,30.35,10.0,Calm,Calm,-,N/A,,Clear,0,2012-10-27 06:35:00
1:55 AM,24.3,19.2,81,30.34,10.0,Calm,Calm,-,N/A,,Clear,0,2012-10-27 06:55:00
2:15 AM,23.7,19.9,85,30.33,10.0,SSE,3.5,-,N/A,,Clear,160,2012-10-27 07:15:00
2:35 AM,23.7,20.1,86,30.33,10.0,South,3.5,-,N/A,,Clear,180,2012-10-27 07:35:00
2:55 AM,24.8,20.7,84,30.32,10.0,SSW,3.5,-,N/A,,Clear,210,2012-10-27 07:55:00
3:35 AM,23.7,20.1,86,30.32,10.0,South,4.6,-,N/A,,Clear,190,2012-10-27 08:35:00
3:55 AM,25.3,21.6,86,30.32,10.0,SSW,4.6,-,N/A,,Clear,200,2012-10-27 08:55:00
4:15 AM,26.4,22.5,85,30.32,10.0,South,5.8,-,N/A,,Clear,190,2012-10-27 09:15:00
4:35 AM,26.6,22.5,84,30.32,10.0,SSW,5.8,-,N/A,,Clear,200,2012-10-27 09:35:00
4:55 AM,26.6,22.8,86,30.33,10.0,South,3.5,-,N/A,,Mostly Cloudy,190,2012-10-27 09:55:00
5:15 AM,27.5,25.2,91,30.32,5.0,South,5.8,-,N/A,,Overcast,180,2012-10-27 10:15:00
5:35 AM,27.5,25.7,93,30.32,7.0,South,8.1,-,N/A,,Overcast,170,2012-10-27 10:35:00
5:55 AM,28.2,26.1,92,30.32,10.0,South,4.6,-,N/A,,Overcast,180,2012-10-27 10:55:00
6:15 AM,28.0,26.1,92,30.33,7.0,South,5.8,-,N/A,,Overcast,170,2012-10-27 11:15:00
6:55 AM,27.1,25.2,92,30.32,10.0,SSE,5.8,-,N/A,,Clear,160,2012-10-27 11:55:00
7:15 AM,27.3,25.2,92,30.31,10.0,SSE,5.8,-,N/A,,Clear,150,2012-10-27 12:15:00
7:35 AM,27.3,24.8,90,30.30,10.0,SSE,5.8,-,N/A,,Clear,160,2012-10-27 12:35:00
7:55 AM,27.5,25.0,90,30.30,10.0,SSE,4.6,-,N/A,,Clear,160,2012-10-27 12:55:00
8:15 AM,28.4,24.8,86,30.30,10.0,South,5.8,-,N/A,,Clear,180,2012-10-27 13:15:00
8:35 AM,28.4,24.4,85,30.30,10.0,SSE,6.9,-,N/A,,Clear,160,2012-10-27 13:35:00
9:15 AM,29.8,24.8,81,30.30,10.0,South,9.2,-,N/A,,Clear,180,2012-10-27 14:15:00
9:35 AM,30.7,26.1,83,30.30,10.0,South,10.4,-,N/A,,Clear,190,2012-10-27 14:35:00
9:55 AM,32.2,26.4,79,30.30,10.0,South,13.8,19.6,N/A,,Clear,190,2012-10-27 14:55:00
10:35 AM,35.8,26.8,70,30.29,10.0,SSW,15.0,18.4,N/A,,Clear,200,2012-10-27 15:35:00
10:55 AM,36.7,25.7,64,30.28,10.0,SSW,13.8,-,N/A,,Clear,200,2012-10-27 15:55:00
11:15 AM,37.6,26.1,63,30.28,10.0,SSW,17.3,20.7,N/A,,Clear,200,2012-10-27 16:15:00
11:35 AM,39.7,26.2,59,30.28,10.0,SSW,16.1,19.6,N/A,,Clear,210,2012-10-27 16:35:00
11:55 AM,40.3,25.9,56,30.28,10.0,South,13.8,-,N/A,,Clear,180,2012-10-27 16:55:00
12:15 PM,40.6,25.7,55,30.27,10.0,South,11.5,19.6,N/A,,Clear,180,2012-10-27 17:15:00
12:35 PM,42.1,25.3,52,30.26,10.0,SSW,17.3,21.9,N/A,,Clear,200,2012-10-27 17:35:00
12:55 PM,42.4,25.2,50,30.24,10.0,South,13.8,19.6,N/A,,Clear,190,2012-10-27 17:55:00
1:15 PM,43.0,25.3,50,30.23,10.0,South,13.8,20.7,N/A,,Clear,180,2012-10-27 18:15:00
1:35 PM,43.9,25.5,48,30.22,10.0,SSW,12.7,21.9,N/A,,Clear,200,2012-10-27 18:35:00
1:55 PM,45.0,25.9,47,30.21,10.0,South,15.0,18.4,N/A,,Clear,180,2012-10-27 18:55:00
2:15 PM,45.5,25.3,45,30.20,10.0,South,10.4,19.6,N/A,,Clear,170,2012-10-27 19:15:00
2:35 PM,45.7,25.2,45,30.18,10.0,South,17.3,21.9,N/A,,Clear,170,2012-10-27 19:35:00
2:55 PM,45.7,25.9,46,30.17,10.0,South,12.7,17.3,N/A,,Clear,180,2012-10-27 19:55:00
3:15 PM,45.5,24.8,44,30.16,10.0,SSE,16.1,24.2,N/A,,Clear,160,2012-10-27 20:15:00
3:35 PM,45.9,24.8,44,30.16,10.0,South,16.1,23.0,N/A,,Scattered Clouds,190,2012-10-27 20:35:00
3:55 PM,47.3,25.0,42,30.15,10.0,South,16.1,21.9,N/A,,Scattered Clouds,190,2012-10-27 20:55:00
4:15 PM,46.6,25.0,43,30.15,10.0,South,16.1,24.2,N/A,,Clear,180,2012-10-27 21:15:00
4:35 PM,46.0,25.5,45,30.14,10.0,South,17.3,21.9,N/A,,Clear,170,2012-10-27 21:35:00
4:55 PM,46.6,24.8,43,30.14,10.0,South,16.1,21.9,N/A,,Clear,170,2012-10-27 21:55:00
5:15 PM,46.6,25.2,43,30.14,10.0,South,16.1,-,N/A,,Clear,170,2012-10-27 22:15:00
5:35 PM,46.2,25.3,44,30.15,10.0,South,12.7,18.4,N/A,,Clear,180,2012-10-27 22:35:00
5:55 PM,45.7,25.3,45,30.16,10.0,South,10.4,18.4,N/A,,Clear,180,2012-10-27 22:55:00
6:15 PM,45.5,24.8,44,30.16,10.0,South,10.4,-,N/A,,Clear,180,2012-10-27 23:15:00
6:35 PM,43.7,24.8,47,30.16,10.0,South,9.2,-,N/A,,Clear,170,2012-10-27 23:35:00
6:55 PM,40.1,24.8,54,30.16,10.0,SSE,8.1,-,N/A,,Clear,150,2012-10-27 23:55:00
7:15 PM,38.3,24.6,58,30.16,10.0,SSE,8.1,-,N/A,,Clear,150,2012-10-28 00:15:00
7:35 PM,36.5,23.9,60,30.17,10.0,SE,8.1,-,N/A,,Clear,130,2012-10-28 00:35:00
7:55 PM,34.2,23.5,65,30.18,10.0,SE,8.1,-,N/A,,Clear,140,2012-10-28 00:55:00
8:15 PM,33.1,23.4,67,30.18,10.0,SE,10.4,-,N/A,,Clear,130,2012-10-28 01:15:00
8:55 PM,34.0,25.2,70,30.18,10.0,SE,11.5,-,N/A,,Clear,140,2012-10-28 01:55:00
9:15 PM,33.8,25.3,71,30.19,10.0,SE,10.4,-,N/A,,Clear,140,2012-10-28 02:15:00
9:35 PM,32.9,25.3,74,30.19,10.0,SE,9.2,-,N/A,,Clear,140,2012-10-28 02:35:00
9:55 PM,32.7,25.3,74,30.19,10.0,SE,10.4,-,N/A,,Clear,140,2012-10-28 02:55:00
10:15 PM,32.4,25.3,75,30.20,10.0,SSE,10.4,-,N/A,,Clear,150,2012-10-28 03:15:00
10:35 PM,30.7,24.4,77,30.20,10.0,SSE,5.8,-,N/A,,Clear,150,2012-10-28 03:35:00
11:15 PM,30.0,24.4,80,30.20,10.0,SSE,8.1,-,N/A,,Clear,150,2012-10-28 04:15:00
11:55 PM,28.9,23.9,81,30.20,10.0,SSE,8.1,-,N/A,,Clear,150,2012-10-28 04:55:00